Location: Male Bielice
(48.6330°N, 18.3330°E)
Time: 10:19:20
(UTC+01:00)

ISS - Visible Passes

Search period start: 21 February 2018 00:00
Search period end: 03 March 2018 00:00
Orbit: 402 x 407 km, 51.6° (Epoch: 21 February)

Date Brightness Start Highest point End Pass type
(mag) Time Alt. Az. Time Alt. Az. Time Alt. Az.
27 Feb -1.1 05:33:26 10° S 05:35:45 18° SE 05:38:03 10° E visible
28 Feb -0.7 04:42:52 10° SSE 04:43:41 11° SE 04:44:31 10° ESE visible
01 Mar -2.3 05:24:20 10° SSW 05:27:20 34° SSE 05:30:21 10° E visible
02 Mar -1.7 04:33:54 17° S 04:35:09 21° SE 04:37:43 10° E visible
